SL-8 R/B (25723 NORAD) Tracking and Keplerian Element Data

This shows tracking and keplerian element data for the satellite.

Feedback or suggestion? Click here.




ElementValue
Catalog25723
NameSL-8 R/B
Epoch Orbit9107
Epoch Day345.48817555
Epoch Year2018
RAAN137.8325
Inclination48.4133
Eccentricity0.0007101
Argument of Perigee154.9174
Mean Anonmoly205.212
Mean Motion15.62296401
Decay Rate8.627E-05
L11 25723U 99022C 18345.48817555 .00008627 00000-0 10100-3 0 9993
L22 25723 48.4133 137.8325 0007101 154.9174 205.2120 15.62296401 91078

Live tracking and technical data element details for SL-8 R/B (NORAD 25723). SL-8 R/B can be tracked NOW for your location showing map with azimuth and elevation plus other details from your city location.

Track the satellite on the map from your city or location and see movement details for azimuth, elevation, latitude, longitude, range, height, and movement on the map or in text.







IsCatalogInMostPopularTable: catalog: 25723, numindb: 42
Update: records affected: 1



GetName: 25723 SL-8 R/B

Hit Count: updated at: Thu, 13 Dec 2018 04:49:49 GMT